STARLINK-35008

Last updated on Tue Sep 16 2025 00:02:07 GMT+0000 (Coordinated Universal Time)

1 65408U 25192E 25258.58341435 -.01477729 00000+0 -15575-1 0 9999 2 65408 53.1599 338.1309 0001260 66.7389 157.2098 15.66410867 3629
UTC large
Height (km)
Speed (km/s)
/
Latitude / Longitude
Inclination (degrees)
Orbital Period (minutes)
Azimuth
Elevation
Range (km)
Doppler Factor

Next 0 passes for location: London (51.5072 / 0.1276)

Sorry there are no passes over London.